Regional Weather Roundup
Issued by NWS Upton, NY

Current Version | Previous Version | Text Only | Print | Product List | Glossary On
Versions: 1 2 3 4 5 6 7 8 9 10 11 12 13 14 15 16 17 18 19 20 21 22 23 24 25 26 27 28 29 30 31 32 33 34 35 36 37 38 39 40 41 42 43 44 45 46 47 48 49 50
000
ASUS41 KOKX 250708
RWROKX

REGIONAL WEATHER ROUNDUP
NATIONAL WEATHER SERVICE NEW YORK NY
300 AM EDT MON MAY 25 2015

NOTE: "FAIR" INDICATES FEW OR NO CLOUDS BELOW 12,000 FEET WITH NO
SIGNIFICANT WEATHER AND/OR OBSTRUCTIONS TO VISIBILITY.

NYZ071-072-176-178-NJZ106-104-250800-
NEW YORK CITY METRO AREA


CITY           SKY/WX    TMP DP  RH WIND       PRES   REMARKS
CENTRAL PARK   PTCLDY    65  50  58 W6        30.28S
LAGUARDIA APRT PTCLDY    66  50  56 SW6       30.25S
KENNEDY INTL   PTCLDY    58  51  78 S6        30.27S
NEWARK/LIBERTY PTCLDY    63  51  65 SW7       30.26S
BRNX BOT. GARD   N/A     63  50  63 CALM      30.26F
TETERBORO      PTCLDY    63  50  62 S3        30.24S
$$

NYZ177-179-078>081-250800-
LONG ISLAND NEW YORK

CITY           SKY/WX    TMP DP  RH WIND       PRES   REMARKS
FARMINGDALE    CLEAR     57  53  86 S3        30.26F
ISLIP          PTCLDY    58  53  84 SW7       30.25S
SHIRLEY        PTCLDY    59  53  80 SW7       30.27F
WESTHAMPTON    PTCLDY    57  52  83 SW8       30.28F
MONTAUK POINT    N/A     58  51  78 SW7       30.27F
$$

NYZ052-065-067-250800-
HUDSON VALLEY

CITY           SKY/WX    TMP DP  RH WIND       PRES   REMARKS
WHITE PLAINS   PTCLDY    56  52  86 CALM      30.25S
NEWBURGH       CLEAR     61  48  63 CALM      30.24F
MONTGOMERY     CLOUDY    56  51  84 CALM      30.23S
POUGHKEEPSIE   MOCLDY    57  51  80 CALM      30.22S
ALBANY         CLOUDY    64  43  46 S6        30.19F
$$

NJZ001-105-106-008-010-013-015-019>022-104-250800-
NEW JERSEY

CITY           SKY/WX    TMP DP  RH WIND       PRES   REMARKS
NEWARK/LIBERTY PTCLDY    63  51  65 SW7       30.26S
TETERBORO      PTCLDY    63  50  62 S3        30.24S
CALDWELL       PTCLDY    63  50  62 CALM      30.25F
MORRISTOWN     MOCLDY    61  52  72 CALM      30.25S
SOMERVILLE     PTCLDY    54  50  86 CALM      30.24S
SUSSEX         CLOUDY    56  48  74 CALM      30.26S
ANDOVER          N/A     58  52  80 CALM      30.25S
TRENTON        PTCLDY    59  52  77 CALM      30.25F
MILLVILLE      MOCLDY    62  56  80 CALM      30.27S
ATLANTIC CITY  CLOUDY    61  54  77 S6        30.28S
WRIGHTSTOWN    MOCLDY    58  54  85 S3        30.24F
TOMS RIVER     CLOUDY   N/A N/A N/A SW5       30.27S
BELMAR         MOCLDY    59  48  67 SW5       30.27S
$$

PAZ047>061-062-071-250800-
EASTERN PENNSYLVANIA

CITY           SKY/WX    TMP DP  RH WIND       PRES   REMARKS
PHILADELPHIA   CLOUDY    65  56  72 S3        30.27S
ALLENTOWN      PTCLDY    58  47  66 N3        30.25S
SCRANTON       CLOUDY    67  43  41 CALM      30.23F
$$

CTZ002-004>006-009-010-012-RIZ004-006-007-MAZ004-011-015-250800-
SOUTHERN NEW ENGLAND
 IN CT

CITY           SKY/WX    TMP DP  RH WIND       PRES   REMARKS
BRADLEY INTL   CLOUDY    58  50  75 S6        30.22F
HARTFORD       CLOUDY    58  50  75 S3        30.24S
DANBURY        MOCLDY    56  50  80 CALM      30.26S
WTRBRY/OXFORD  CLOUDY    57  48  72 CALM      30.27F
BRIDGEPORT     MOCLDY    57  52  83 W3        30.25F
MERIDEN        CLOUDY    56  49  77 CALM      30.25S
NEW HAVEN      CLOUDY    56  52  86 S3        30.25F
CHESTER        FAIR      57  52  82 SW7       30.26S
GROTON         MOCLDY    53  49  86 SW3       30.25F
WILLIMANTIC    CLOUDY    54  49  83 CALM      30.25F

 IN RI

CITY           SKY/WX    TMP DP  RH WIND       PRES   REMARKS
PROVIDENCE     MOCLDY    58  48  69 SW8       30.24F
BLOCK ISLAND   MOCLDY    54  48  82 SW15      30.26F
WESTERLY       MOCLDY    54  49  83 CALM      30.26F

 IN MA

CITY           SKY/WX    TMP DP  RH WIND       PRES   REMARKS
BOSTON         MOCLDY    61  50  67 S6        30.21S
WORCESTER      CLOUDY    58  48  69 W13       30.23F
WESTFIELD      NOT AVBL
PROVINCETOWN   MOCLDY    55  48  76 S10       30.23F
NANTUCKET      MOCLDY    54  52  93 SW12      30.28S
$$

ANZ330-335-338-340-345-350-353-355-250800-
COASTAL MARINE OBSERVATIONS


STATION/POSITION TIME  SKY/WX   TEMP    WIND        PRES    VSBY  WAVE
                                AIR SEA DIR/SP/G                  HT/PER
                 (UTC)          (F)     (DEG/KT/KT) (MB)    (MI)  (FT/S)
NY HARB ENTRANCE 0650            58 56  210/ 12/ 14 1024.2          2/ 5
4S FIRE IS       0603               53                N/A           4/ 5
20S FIRE ISLAND  0650            58 55  220/ 14/ 16 1024.7          3/ 5
GREAT SOUTH BAY  0600            60 63  260/ 12/ 14   N/A
23SW MTP         0650            55 53  240/  8/  8 1025.0          3/ 5
HUDSON CANYON    NOT AVBL
KINGS POINT      0600            62 57  170/  5/  8 1023.9
CENTRAL LI SOUND 0630            57 53  210/  2/  4   N/A
EASTERN LI SOUND 0600            55     240/  4/  4   N/A
ROBBINS REEF     0600            64     200/  4/  6 1023.5
$$


>>>>>>>>>>>>>>>>>>>>>>>>>>>> KEY <<<<<<<<<<<<<<<<<<<<<<<<<<<
>                                                          <
>     SKY/WX - SKY CONDITION/PRESENT WEATHER               <
>     TMP    - TEMPERATURE IN FAHRENHEIT                   <
>     DP     - DEWPOINT IN FAHRENHEIT                      <
>     RH     - RELATIVE HUMIDITY IN PERCENT                <
>     WIND   - DIRECTION AND SPEED IN MPH                  <
>     PRES   - MEAN SEA LEVEL PRESSURE IN INCHES OF HG     <
>     WCI    - WIND CHILL INDEX                            <
>     VSB    - VISIBILITY IN MILES                         <
>     HX     - HEAT INDEX                                  <
>     TC     - TEMPERATURE IN CELSIUS                      <
>     VRB    - VARIABLE WIND DIRECTION                     <
>                                                          <
>>>>>>>>>>>>>>>>>>>>>>>>>>>> KEY <<<<<<<<<<<<<<<<<<<<<<<<<<<





USA.gov is the U.S. government's official web portal to all federal, state and local government web resources and services.